Temp
-10 -10 -9 -9 -9 -9 -9 -9 -8 -8 -8 -8 -8 -8 -8 -8 -8 -8 -8 -8 -8 -8 -8 -8 -8 -8 -9 -9 -9 -9 -9 -9 -9 -9 -9 -9 -9 -9 -9 -10 -10 -10 -11 -11 -11 -11 -12
-10 -10 -10 -9 -9 -9 -9 -9 -8 -8 -8 -8 -8 -8 -8 -8 -8 -8 -8 -8 -8 -8 -8 -8 -9 -9 -9 -9 -9 -9 -9 -9 -9 -9 -9 -9 -9 -9 -9 -10 -10 -11 -11 -11 -12 -12 -12
-10 -10 -9 -9 -9 -9 -9 -9 -9 -9 -9 -9 -9 -8 -8 -8 -8 -8 -8 -8 -8 -8 -8 -9 -9 -9 -9 -9 -9 -9 -9 -8 -8 -9 -9 -9 -9 -9 -9 -10 -10 -10 -11 -11 -11 -12 -12
-10 -10 -9 -9 -9 -9 -9 -9 -9 -9 -9 -9 -9 -8 -8 -9 -9 -9 -9 -9 -8 -8 -8 -9 -9 -9 -9 -9 -9 -9 -9 -9 -8 -9 -9 -9 -9 -9 -9 -9 -10 -10 -11 -11 -12 -12 -12
-10 -10 -10 -9 -9 -9 -9 -9 -9 -9 -9 -9 -9 -9 -9 -9 -9 -9 -9 -9 -8 -8 -8 -8 -9 -9 -9 -9 -9 -9 -9 -9 -9 -9 -9 -9 -9 -9 -10 -10 -10 -10 -11 -11 -11 -12 -13
-10 -10 -10 -10 -9 -9 -9 -9 -9 -9 -9 -9 -9 -9 -9 -9 -9 -9 -9 -9 -9 -8 -8 -8 -8 -9 -9 -9 -9 -9 -9 -9 -9 -9 -9 -9 -10 -10 -10 -10 -10 -10 -11 -11 -12 -12 -13
-10 -10 -10 -10 -10 -9 -9 -9 -10 -9 -10 -9 -9 -9 -9 -9 -9 -9 -9 -9 -8 -8 -9 -8 -8 -9 -9 -9 -9 -9 -9 -9 -9 -9 -9 -10 -10 -10 -10 -10 -11 -11 -11 -12 -12 -13 -13
-10 -10 -10 -10 -10 -10 -10 -10 -10 -10 -10 -10 -10 -10 -9 -9 -9 -9 -9 -9 -9 -9 -9 -9 -9 -9 -9 -9 -9 -9 -9 -9 -9 -10 -10 -10 -10 -11 -11 -11 -11 -11 -12 -12 -12 -13 -13
-10 -10 -10 -10 -10 -10 -10 -10 -10 -10 -10 -10 -10 -10 -9 -9 -9 -9 -9 -9 -9 -9 -9 -9 -9 -9 -9 -9 -9 -9 -9 -9 -10 -10 -10 -11 -11 -11 -11 -11 -11 -11 -12 -12 -12 -13 -13
-10 -10 -10 -10 -10 -10 -10 -10 -10 -10 -10 -10 -10 -10 -10 -10 -9 -9 -9 -9 -9 -9 -9 -9 -9 -9 -9 -9 -9 -9 -9 -10 -10 -10 -10 -11 -11 -11 -12 -12 -12 -12 -12 -13 -13 -13 -13
-10 -10 -10 -10 -10 -10 -10 -10 -10 -10 -10 -10 -10 -10 -10 -10 -10 -10 -9 -9 -9 -9 -9 -9 -9 -9 -9 -10 -10 -10 -10 -10 -10 -11 -11 -11 -12 -12 -12 -12 -12 -12 -12 -12 -13 -13 -13
-10 -10 -10 -9 -9 -9 -9 -9 -10 -10 -10 -10 -10 -10 -10 -10 -10 -10 -10 -9 -9 -9 -9 -9 -9 -9 -10 -10 -10 -10 -10 -11 -11 -11 -11 -12 -12 -12 -13 -13 -13 -13 -13 -12 -13 -14 -14
-10 -10 -10 -10 -9 -9 -9 -9 -9 -10 -10 -10 -10 -10 -10 -10 -10 -10 -10 -10 -9 -9 -9 -9 -10 -10 -10 -10 -10 -10 -11 -11 -11 -12 -12 -12 -12 -13 -13 -13 -13 -13 -13 -13 -13 -13 -14
-10 -10 -10 -10 -9 -9 -9 -9 -9 -9 -10 -10 -10 -10 -10 -10 -10 -10 -10 -10 -10 -10 -10 -10 -10 -10 -10 -10 -11 -11 -11 -11 -12 -12 -12 -13 -12 -13 -14 -14 -14 -13 -14 -14 -14 -14 -14
-10 -10 -10 -10 -10 -9 -9 -9 -9 -9 -9 -10 -10 -10 -10 -10 -10 -10 -10 -10 -10 -10 -10 -10 -10 -10 -11 -11 -11 -11 -12 -12 -12 -12 -13 -13 -13 -14 -14 -14 -14 -14 -14 -14 -14 -14 -13
-10 -10 -10 -10 -10 -10 -10 -9 -10 -9 -9 -10 -10 -10 -10 -10 -10 -10 -10 -10 -10 -10 -10 -10 -11 -11 -11 -11 -12 -12 -12 -12 -12 -12 -13 -13 -13 -14 -14 -15 -15 -15 -15 -14 -15 -15 -15
-11 -10 -10 -10 -10 -10 -10 -10 -10 -10 -10 -10 -10 -10 -10 -10 -10 -10 -10 -10 -10 -11 -11 -11 -11 -11 -11 -12 -12 -12 -12 -12 -12 -12 -13 -13 -14 -15 -15 -15 -15 -15 -15 -15 -15 -15 -16
-11 -11 -11 -11 -11 -11 -10 -10 -10 -10 -10 -10 -10 -10 -11 -11 -11 -11 -11 -11 -11 -11 -11 -12 -12 -12 -12 -12 -12 -12 -13 -13 -13 -13 -13 -13 -14 -15 -15 -15 -16 -16 -16 -16 -16 -16 -15
-11 -11 -11 -11 -11 -11 -11 -11 -11 -11 -11 -11 -11 -11 -11 -11 -11 -11 -11 -11 -12 -12 -12 -12 -12 -12 -12 -13 -13 -13 -13 -13 -13 -13 -13 -13 -14 -15 -15 -15 -16 -16 -16 -16 -16 -16 -17
-12 -12 -12 -12 -12 -12 -11 -11 -11 -11 -11 -11 -11 -11 -11 -11 -11 -11 -12 -12 -12 -12 -12 -12 -12 -12 -13 -13 -13 -13 -13 -13 -14 -14 -14 -14 -14 -15 -16 -16 -16 -16 -17 -17 -17 -17 -16
-13 -13 -13 -12 -12 -12 -12 -12 -12 -12 -12 -12 -12 -12 -12 -12 -12 -12 -12 -12 -12 -12 -12 -12 -13 -13 -13 -13 -13 -13 -14 -14 -14 -15 -15 -15 -15 -15 -16 -17 -16 -16 -17 -18 -18 -18 -17
-13 -13 -13 -13 -12 -12 -12 -12 -12 -12 -12 -12 -12 -12 -12 -12 -12 -12 -12 -12 -12 -13 -13 -13 -13 -13 -13 -13 -13 -14 -14 -14 -14 -14 -15 -16 -16 -15 -16 -17 -17 -16 -17 -17 -18 -19 -18
-14 -14 -13 -13 -13 -12 -12 -13 -13 -13 -13 -12 -12 -12 -12 -13 -13 -13 -13 -13 -13 -13 -13 -13 -13 -13 -13 -13 -14 -15 -15 -14 -14 -15 -15 -16 -17 -16 -15 -16 -16 -16 -17 -18 -18 -18 -18
-14 -15 -14 -14 -13 -13 -13 -13 -13 -13 -13 -13 -13 -13 -13 -12 -13 -13 -13 -14 -14 -14 -14 -14 -14 -14 -14 -14 -14 -15 -15 -15 -15 -16 -16 -16 -17 -17 -16 -16 -16 -17 -17 -18 -18 -18 -19
-14 -15 -15 -14 -14 -14 -14 -13 -13 -13 -13 -14 -14 -13 -13 -13 -13 -14 -14 -14 -14 -14 -14 -14 -14 -14 -14 -14 -15 -14 -15 -15 -15 -16 -16 -17 -17 -17 -18 -17 -16 -17 -17 -18 -18 -17 -18
-14 -14 -14 -14 -14 -14 -14 -14 -14 -14 -14 -14 -14 -14 -14 -14 -14 -14 -14 -15 -15 -15 -14 -15 -15 -15 -15 -15 -16 -15 -15 -16 -15 -16 -16 -17 -17 -18 -18 -18 -17 -17 -18 -18 -18 -18 -18
-15 -14 -14 -14 -14 -14 -14 -14 -15 -15 -14 -14 -14 -14 -14 -14 -14 -15 -15 -15 -15 -15 -15 -14 -15 -15 -16 -16 -17 -17 -16 -16 -16 -16 -16 -17 -17 -18 -18 -19 -17 -19 -19 -19 -19 -19 -19
-15 -15 -14 -14 -14 -14 -14 -14 -15 -15 -15 -15 -15 -15 -15 -14 -14 -14 -15 -15 -15 -16 -15 -15 -15 -15 -16 -17 -17 -17 -17 -16 -16 -17 -17 -18 -18 -18 -19 -19 -19 -19 -20 -20 -20 -20 -20
-15 -15 -15 -15 -15 -15 -15 -15 -15 -15 -15 -15 -15 -16 -16 -15 -14 -15 -14 -15 -16 -16 -15 -15 -16 -16 -17 -18 -17 -17 -17 -16 -17 -17 -18 -18 -18 -19 -19 -19 -20 -21 -21 -21 -21 -21 -21
Height
5867 5866 5865 5865 5865 5864 5863 5863 5862 5862 5862 5862 5861 5861 5860 5858 5857 5855 5853 5851 5850 5848 5846 5844 5842 5841 5839 5838 5835 5831 5828 5826 5823 5820 5817 5814 5811 5807 5803 5800 5796 5792 5788 5785 5782 5778 5774
5870 5869 5868 5868 5867 5867 5867 5866 5865 5865 5865 5864 5864 5863 5862 5861 5859 5858 5856 5854 5852 5850 5847 5845 5843 5842 5840 5838 5834 5831 5828 5826 5823 5820 5817 5813 5809 5806 5802 5798 5795 5791 5787 5783 5779 5776 5772
5873 5872 5871 5871 5870 5870 5869 5869 5869 5868 5867 5867 5866 5865 5864 5863 5862 5860 5858 5857 5854 5851 5849 5847 5845 5843 5841 5839 5836 5833 5830 5827 5823 5820 5816 5812 5808 5805 5801 5796 5792 5788 5785 5780 5776 5773 5769
5875 5875 5874 5873 5873 5872 5872 5871 5871 5870 5869 5869 5868 5867 5866 5865 5864 5862 5861 5858 5856 5853 5851 5849 5846 5844 5841 5839 5836 5833 5830 5827 5823 5819 5815 5812 5808 5804 5800 5795 5791 5787 5783 5778 5774 5770 5766
5877 5876 5876 5875 5874 5874 5873 5873 5872 5872 5871 5871 5870 5869 5868 5867 5866 5864 5862 5859 5857 5855 5853 5850 5847 5844 5842 5839 5837 5834 5830 5826 5822 5818 5814 5811 5807 5803 5798 5794 5790 5785 5780 5775 5771 5767 5763
5878 5878 5877 5877 5876 5876 5875 5874 5874 5874 5873 5872 5871 5870 5869 5868 5867 5865 5863 5860 5858 5856 5854 5851 5848 5846 5842 5840 5836 5833 5829 5825 5821 5817 5813 5810 5806 5802 5797 5792 5788 5783 5779 5773 5769 5766 5761
5878 5879 5878 5878 5878 5877 5877 5876 5875 5875 5875 5874 5873 5871 5870 5868 5867 5865 5863 5861 5861 5858 5854 5852 5849 5845 5842 5840 5836 5832 5828 5824 5821 5817 5813 5809 5805 5800 5795 5791 5786 5781 5777 5772 5767 5762 5759
5878 5879 5879 5879 5879 5879 5878 5877 5876 5876 5875 5875 5874 5873 5871 5870 5868 5866 5864 5862 5860 5858 5855 5852 5850 5846 5843 5840 5836 5832 5828 5825 5820 5816 5812 5808 5803 5797 5793 5789 5784 5779 5775 5770 5765 5759 5755
5878 5878 5879 5879 5879 5879 5879 5878 5877 5876 5876 5875 5874 5873 5872 5870 5869 5868 5864 5862 5860 5858 5855 5853 5849 5846 5843 5840 5836 5832 5828 5823 5818 5814 5810 5805 5801 5795 5791 5787 5782 5777 5772 5767 5762 5756 5752
5876 5877 5878 5878 5878 5878 5878 5878 5877 5877 5876 5875 5874 5873 5871 5870 5870 5867 5865 5862 5860 5857 5855 5853 5849 5846 5843 5839 5836 5831 5826 5822 5817 5813 5808 5803 5798 5794 5789 5785 5780 5775 5770 5765 5760 5754 5749
5874 5875 5876 5876 5876 5876 5876 5877 5877 5877 5876 5875 5874 5872 5871 5870 5868 5866 5864 5861 5859 5856 5854 5852 5848 5844 5840 5838 5834 5829 5824 5819 5814 5810 5806 5802 5796 5792 5787 5782 5777 5773 5767 5761 5757 5752 5748
5872 5873 5873 5874 5874 5873 5873 5874 5875 5875 5875 5874 5873 5871 5870 5869 5867 5865 5862 5860 5858 5856 5852 5850 5846 5842 5839 5834 5830 5825 5821 5816 5812 5807 5803 5799 5794 5789 5785 5779 5774 5769 5764 5759 5753 5749 5745
5868 5870 5871 5871 5871 5871 5871 5871 5871 5871 5871 5871 5870 5869 5868 5866 5865 5862 5860 5858 5856 5853 5851 5848 5843 5839 5835 5830 5826 5821 5817 5813 5809 5806 5800 5795 5790 5786 5781 5776 5771 5765 5760 5755 5750 5744 5741
5864 5865 5866 5867 5868 5868 5868 5868 5867 5867 5867 5867 5867 5866 5865 5863 5861 5859 5857 5855 5853 5850 5846 5843 5840 5836 5831 5827 5823 5819 5815 5810 5806 5801 5796 5792 5786 5781 5777 5772 5767 5761 5756 5751 5745 5741 5738
5859 5861 5862 5863 5863 5863 5863 5863 5863 5863 5862 5862 5862 5862 5861 5860 5858 5855 5854 5852 5849 5846 5843 5840 5836 5832 5828 5824 5820 5815 5811 5807 5802 5797 5792 5786 5783 5776 5772 5767 5762 5756 5752 5747 5742 5737 5732
5854 5856 5857 5859 5859 5859 5859 5859 5859 5858 5858 5857 5856 5857 5856 5855 5853 5851 5850 5847 5844 5841 5838 5835 5832 5828 5823 5819 5815 5811 5806 5802 5797 5792 5786 5781 5777 5771 5766 5762 5757 5752 5747 5742 5736 5732 5727
5848 5850 5852 5852 5853 5854 5854 5854 5854 5853 5853 5852 5852 5851 5851 5849 5848 5846 5844 5842 5839 5836 5834 5831 5827 5823 5819 5814 5810 5806 5801 5797 5792 5786 5781 5775 5770 5767 5760 5756 5753 5748 5743 5738 5733 5727 5723
5841 5843 5844 5846 5847 5848 5848 5848 5848 5847 5847 5846 5846 5846 5844 5843 5843 5840 5838 5836 5834 5831 5828 5825 5821 5817 5813 5808 5804 5800 5795 5791 5786 5780 5774 5768 5763 5759 5754 5749 5746 5742 5737 5731 5725 5720 5716
5833 5835 5837 5839 5840 5841 5842 5841 5841 5841 5840 5839 5839 5839 5838 5837 5836 5834 5831 5829 5826 5824 5821 5818 5814 5811 5806 5802 5797 5794 5787 5784 5779 5773 5767 5761 5756 5749 5746 5743 5738 5734 5730 5725 5720 5716 5711
5824 5827 5829 5831 5832 5834 5834 5835 5835 5834 5833 5833 5833 5832 5831 5829 5828 5827 5824 5822 5819 5817 5814 5811 5807 5804 5800 5796 5790 5786 5781 5777 5771 5765 5759 5752 5749 5743 5740 5735 5729 5728 5722 5717 5714 5710 5703
5815 5818 5820 5822 5823 5825 5826 5826 5827 5827 5826 5825 5824 5824 5823 5822 5821 5819 5817 5815 5812 5809 5807 5804 5801 5796 5792 5787 5782 5778 5773 5767 5762 5756 5748 5743 5740 5734 5733 5728 5723 5721 5716 5710 5704 5702 5692
5804 5807 5810 5813 5814 5816 5817 5818 5818 5819 5819 5818 5817 5816 5815 5814 5812 5811 5809 5808 5805 5801 5798 5796 5791 5787 5783 5778 5772 5768 5763 5758 5753 5747 5739 5735 5730 5725 5725 5720 5714 5712 5708 5702 5696 5691 5684
5793 5797 5800 5803 5805 5806 5807 5808 5810 5811 5811 5810 5809 5808 5806 5806 5804 5803 5801 5798 5797 5794 5791 5787 5783 5778 5774 5769 5763 5758 5754 5749 5742 5735 5730 5725 5720 5715 5714 5710 5704 5703 5697 5691 5686 5680 5674
5781 5785 5789 5792 5794 5796 5798 5798 5800 5801 5802 5801 5801 5800 5797 5797 5795 5793 5792 5789 5787 5784 5780 5776 5772 5767 5765 5758 5754 5749 5746 5738 5732 5726 5720 5714 5710 5705 5704 5701 5695 5693 5688 5683 5676 5669 5664
5769 5773 5778 5782 5784 5786 5787 5788 5788 5790 5790 5790 5789 5788 5787 5786 5785 5784 5781 5779 5776 5772 5769 5765 5760 5757 5752 5747 5743 5739 5737 5730 5725 5720 5713 5706 5700 5694 5692 5690 5687 5686 5680 5671 5665 5662 5652
5755 5760 5764 5768 5772 5773 5775 5776 5777 5778 5779 5779 5778 5778 5777 5775 5776 5772 5770 5768 5765 5761 5758 5755 5750 5745 5740 5735 5730 5727 5724 5720 5714 5711 5707 5701 5694 5686 5682 5676 5673 5672 5666 5659 5653 5648 5638
5742 5746 5749 5754 5757 5759 5761 5763 5764 5765 5766 5765 5766 5765 5763 5762 5764 5761 5760 5756 5754 5749 5746 5742 5739 5734 5728 5723 5721 5718 5714 5710 5705 5700 5695 5690 5684 5677 5672 5662 5663 5658 5651 5643 5638 5633 5624
5727 5731 5735 5738 5742 5745 5747 5749 5750 5750 5751 5751 5751 5750 5750 5749 5751 5750 5748 5744 5741 5736 5733 5730 5728 5722 5715 5711 5709 5706 5702 5698 5693 5687 5682 5677 5672 5668 5660 5651 5648 5643 5635 5630 5624 5615 5606
5710 5714 5718 5722 5725 5728 5731 5733 5734 5734 5735 5736 5738 5735 5732 5733 5737 5736 5734 5731 5728 5724 5720 5716 5714 5707 5702 5699 5696 5692 5688 5684 5681 5676 5671 5666 5663 5657 5650 5643 5636 5627 5622 5615 5606 5598 5590
Wind_Speed
17 16 14 15 15 15 15 15 14 14 15 15 15 16 16 18 20 22 21 21 20 18 17 16 15 15 15 17 19 18 19 17 17 18 18 18 18 18 19 19 20 22 22 22 22 22 23
17 17 15 15 14 14 14 15 15 14 14 13 13 13 15 17 18 19 20 21 21 19 18 16 15 15 16 19 21 20 19 19 19 19 19 20 21 20 20 20 21 21 22 22 22 22 22
14 15 16 15 13 12 12 13 13 12 12 12 13 13 13 13 15 17 18 21 22 22 21 18 16 16 17 19 20 22 20 20 20 19 19 19 21 21 23 22 22 22 23 22 21 21 22
11 12 14 14 13 13 12 11 11 11 12 12 11 11 11 11 13 16 18 20 21 21 23 21 18 17 17 17 19 22 24 24 23 21 20 20 22 23 23 23 23 21 23 22 18 19 20
8 10 11 12 12 12 10 10 9 9 11 12 12 12 13 12 12 15 18 18 18 20 22 23 21 19 17 18 19 22 25 26 25 23 20 20 21 23 22 25 23 22 24 23 19 19 19
6 6 8 10 11 11 10 8 7 7 7 9 10 10 10 10 13 15 16 17 17 18 20 22 22 22 21 21 22 25 26 25 25 23 21 21 22 24 25 26 27 26 24 25 21 20 19
5 4 5 6 7 9 9 8 7 6 5 5 7 9 10 11 13 14 16 15 17 17 18 20 21 23 25 25 25 26 26 25 25 24 24 24 27 27 27 29 28 26 25 25 23 22 20
5 2 2 2 3 3 6 7 5 5 5 5 6 7 8 9 11 14 14 14 16 17 17 17 18 22 24 27 27 27 27 26 25 24 25 28 30 29 29 28 27 26 26 26 23 23 23
6 5 4 3 4 4 1 3 3 3 3 4 5 5 7 6 8 12 15 15 15 15 16 16 18 20 24 25 27 28 28 27 26 26 28 31 31 28 28 27 27 28 27 26 25 25 24
9 8 7 7 7 8 8 5 2 1 0 1 3 5 8 9 11 13 15 15 16 16 17 19 19 21 23 24 25 28 29 27 27 28 31 31 29 27 29 29 29 29 28 28 25 26 25
12 10 10 9 9 10 11 13 9 7 5 4 4 7 9 12 14 16 16 17 17 17 19 20 22 24 24 24 26 28 29 30 29 31 32 32 31 30 31 30 30 30 29 30 28 25 24
15 12 11 11 10 10 11 13 16 13 11 10 8 9 11 13 16 17 17 18 20 20 20 22 24 25 24 25 27 29 29 31 31 32 31 33 33 31 31 31 32 30 29 30 32 28 26
17 15 14 12 12 11 12 12 15 18 17 15 14 13 13 15 17 19 19 20 20 20 21 22 24 25 27 28 29 31 31 32 32 33 34 35 34 31 29 30 29 30 31 31 33 33 31
20 19 17 15 14 14 13 14 15 17 21 20 18 17 17 18 19 21 21 21 21 21 21 23 24 26 28 30 31 33 32 33 34 36 36 36 35 33 30 29 28 31 33 33 31 32 31
24 22 21 19 18 17 17 16 16 16 19 22 21 21 21 22 21 22 22 21 22 22 24 25 26 27 29 30 33 34 34 34 36 38 37 38 35 35 30 28 28 31 32 32 32 32 34
27 25 24 23 22 20 19 18 17 18 18 21 22 23 24 23 23 23 23 23 24 24 26 27 28 29 31 33 34 35 35 37 39 40 41 40 36 35 34 29 28 30 32 33 35 33 35
30 28 27 26 24 23 21 20 19 19 20 21 22 23 24 24 23 23 24 24 25 26 27 29 30 31 33 35 34 35 37 38 40 42 43 44 42 35 36 31 28 31 32 34 35 35 35
34 33 32 31 28 25 24 22 22 22 22 22 23 23 24 24 24 24 25 26 28 29 30 31 31 32 34 36 37 38 40 40 44 45 45 45 44 39 36 35 31 32 33 34 36 38 37
37 35 35 33 30 29 27 26 24 24 24 24 25 25 25 25 26 27 28 29 30 31 31 32 33 33 34 36 40 40 42 45 48 47 46 48 46 43 40 38 36 33 33 36 36 38 37
39 38 37 36 34 32 31 30 29 28 28 28 28 28 28 29 30 31 31 33 33 32 32 33 33 35 39 40 41 44 47 50 49 47 47 49 46 44 41 36 37 32 35 39 38 39 42
43 41 40 40 38 36 36 34 34 33 32 31 31 31 31 31 31 31 30 31 32 32 33 36 38 39 41 43 46 48 50 50 52 48 48 48 47 47 38 36 37 35 34 36 39 36 44
47 44 43 43 41 41 38 37 36 37 36 34 32 31 29 28 28 29 31 33 34 34 36 37 40 42 45 48 52 52 52 53 52 50 48 46 45 45 40 34 38 39 35 38 37 37 47
47 44 44 44 44 43 41 38 35 34 32 33 31 31 32 31 31 34 33 34 36 39 40 42 43 46 49 52 52 49 50 50 50 50 47 44 41 43 39 36 39 40 39 42 42 48 48
51 46 47 47 45 44 41 38 36 38 38 38 39 39 39 38 38 37 36 37 38 42 45 47 50 54 55 56 54 52 51 49 46 47 43 41 41 41 39 38 41 43 42 44 49 51 51
52 51 49 48 48 48 45 45 45 46 45 44 43 42 41 41 40 39 41 43 43 47 49 51 53 57 56 56 55 54 49 51 46 42 42 42 43 43 42 43 46 45 45 49 51 54 57
57 57 57 56 56 54 53 51 50 51 50 48 46 46 45 47 44 44 44 44 46 51 53 52 55 56 55 54 52 51 51 49 50 46 43 44 47 47 48 49 51 48 49 52 54 56 59
62 63 60 61 60 58 59 56 53 54 54 53 53 52 53 51 50 49 48 49 47 51 54 56 55 56 55 53 52 53 52 53 54 50 46 45 47 48 46 50 52 49 55 55 57 61 62
66 68 67 63 62 62 61 62 58 58 59 58 58 59 58 57 57 55 56 54 53 56 57 59 57 55 54 51 50 49 53 56 54 48 46 47 47 48 51 55 56 57 56 60 60 62 66
72 74 71 70 68 68 68 68 66 64 64 63 62 63 65 64 60 61 62 60 60 62 61 61 57 56 54 52 49 52 53 58 52 53 50 52 48 49 52 56 56 54 60 63 67 68 71
Wind_Direction
85 91 91 90 90 86 86 83 84 89 91 89 90 86 73 73 65 59 58 54 48 45 40 39 36 33 27 21 16 17 14 7 0 1 2 3 2 358 353 349 346 341 339 337 339 337 336
86 87 90 92 91 91 93 85 86 89 88 86 79 78 71 70 61 53 52 51 46 43 36 30 27 29 28 19 16 11 9 12 7 1 360 359 356 352 348 347 346 343 340 334 332 331 330
91 88 87 88 90 95 93 90 84 85 87 80 75 76 67 63 56 49 46 42 38 36 32 25 19 16 11 13 14 16 13 6 1 360 357 356 352 352 350 348 348 347 344 337 334 331 324
92 92 88 85 86 87 85 88 87 82 81 81 73 64 59 62 54 48 36 31 28 28 24 21 15 11 4 7 12 11 9 2 355 351 351 353 353 350 349 351 348 346 348 346 339 339 329
103 95 92 84 80 77 79 86 91 88 81 82 75 63 58 59 45 32 25 25 23 24 19 20 18 14 8 9 4 0 358 355 354 352 348 350 348 350 350 349 348 344 347 348 348 341 339
121 113 104 92 82 75 73 78 88 95 88 74 58 53 48 41 32 23 18 13 15 15 14 20 21 19 14 5 356 350 349 351 353 353 349 347 346 345 344 348 346 344 345 350 349 349 346
145 132 129 112 93 75 68 76 86 85 85 67 53 43 36 32 30 16 12 15 15 12 11 15 18 16 12 6 359 356 352 350 350 349 348 347 344 343 342 342 341 344 346 351 350 348 351
194 192 147 156 139 93 78 69 75 94 92 66 50 47 39 29 20 11 11 12 7 6 7 8 11 9 5 1 0 358 355 351 348 346 344 343 342 340 342 345 345 345 343 348 351 351 349
222 231 242 243 237 224 186 106 89 89 78 73 53 33 18 8 2 2 4 0 360 357 0 358 358 357 356 355 355 354 352 350 346 342 339 340 341 341 342 344 343 341 341 344 348 349 346
234 241 258 261 255 250 242 241 228 234 242 343 2 5 358 357 357 359 352 350 349 347 348 347 348 346 347 347 347 346 346 344 340 340 338 339 339 339 339 342 339 339 338 343 347 347 343
239 248 256 263 265 255 251 248 252 254 268 294 316 330 337 343 343 344 344 343 338 339 340 338 340 339 338 338 340 338 339 338 339 339 340 341 337 335 335 337 338 337 337 340 345 349 341
247 250 255 258 264 261 258 256 252 256 261 269 285 303 321 330 334 334 332 335 335 334 333 332 332 331 329 329 332 333 333 334 337 338 337 338 335 332 332 334 335 336 335 338 338 346 347
249 253 257 259 261 264 263 265 260 252 257 265 278 292 304 316 321 325 328 329 331 331 331 328 326 327 326 325 327 329 328 330 332 333 331 333 334 331 331 332 335 334 336 332 335 338 346
250 252 255 257 261 263 262 266 267 260 254 261 271 284 295 305 312 317 320 322 323 323 322 322 323 324 321 321 322 326 327 327 329 329 328 329 328 328 329 330 332 331 332 332 330 332 337
249 251 255 258 259 261 264 264 268 267 256 260 269 278 288 296 304 310 313 317 318 318 317 317 319 319 317 318 322 324 326 327 327 326 326 326 324 323 324 325 325 327 327 328 324 320 320
249 251 255 260 262 262 263 263 264 266 262 260 265 275 283 292 299 305 308 309 309 308 310 313 315 316 316 317 320 322 324 324 325 324 322 323 321 320 318 318 321 323 321 325 328 324 322
252 254 257 259 259 261 259 261 264 267 267 267 271 277 283 289 295 299 301 301 303 304 308 310 311 313 313 311 315 316 317 322 324 322 321 320 319 320 315 315 318 319 320 323 325 323 323
248 251 253 255 254 254 255 257 260 263 267 271 273 277 281 286 290 293 295 299 303 306 308 309 310 310 310 311 312 314 315 319 322 322 320 318 317 316 314 311 314 318 323 320 321 321 322
249 251 254 255 254 253 255 256 259 264 266 268 271 275 280 284 287 291 295 298 301 305 306 308 310 312 313 312 310 312 312 317 320 318 316 315 313 311 313 309 309 316 319 316 316 318 319
247 250 250 251 253 255 255 258 258 261 263 266 270 273 278 282 286 290 293 298 301 304 307 308 310 311 311 311 311 312 311 314 315 315 312 309 310 309 312 308 305 310 314 314 315 317 310
248 249 250 250 250 251 254 255 257 258 259 263 268 273 278 283 287 290 294 298 302 303 304 307 308 309 309 310 311 312 312 313 312 312 308 307 309 306 309 305 302 306 309 309 312 313 310
247 247 249 251 251 252 253 255 255 260 262 264 268 274 276 279 283 289 294 296 297 298 301 303 305 307 308 309 310 312 314 312 313 310 307 305 304 303 307 305 299 304 305 309 312 310 310
247 244 246 248 249 249 250 253 256 259 262 267 267 273 276 278 281 286 288 290 294 298 298 300 303 308 310 310 309 312 319 317 315 310 306 304 302 305 311 304 302 303 312 314 308 311 312
242 242 244 250 247 248 246 248 255 260 265 269 270 272 274 278 281 282 284 288 293 295 298 301 305 308 312 311 310 308 318 319 315 310 309 305 305 302 304 302 300 305 309 310 306 308 311
239 241 244 245 250 248 250 254 258 260 262 265 264 267 271 275 277 280 283 289 293 296 297 301 303 307 309 308 305 307 312 314 311 309 309 306 305 302 302 300 302 305 308 308 308 309 305
240 240 246 250 249 249 255 261 262 263 265 265 269 274 276 278 277 280 284 290 294 296 298 299 303 306 306 304 304 306 314 313 314 310 303 302 301 300 302 300 302 309 308 304 303 305 306
246 245 245 249 251 250 253 257 261 263 266 267 269 271 273 274 277 279 283 286 291 292 295 299 302 303 300 301 302 304 306 310 310 307 302 301 300 299 300 298 304 308 303 303 306 308 304
246 249 250 250 249 251 254 256 258 262 265 267 269 272 274 276 277 279 281 285 291 292 296 297 299 298 298 298 303 305 306 307 308 303 302 300 298 300 298 300 304 306 303 304 303 299 297
245 246 250 253 254 254 255 256 257 261 265 266 269 273 274 276 277 278 281 285 289 292 292 296 298 296 300 303 303 304 307 310 305 305 301 299 299 297 299 301 302 301 299 298 297 298 297